Location: Azat
(46.0765°N, 1.7600°E)
Time: 19:52:35
(UTC+00:00)

Cosmos 1821 Rocket - Pass Details

Date: 09 April 2020
Orbit: 945 x 1004 km, 82.9° (Epoch: 25 May)

Event Time Altitude Azimuth Distance (km) Brightness Sun altitude
Rises 22:02:01 0° 347° (NNW) 3,731 8.1 -30.4°
Reaches altitude 10° 22:04:36 10° 343° (NNW) 2,782 7.2 -30.6°
Maximum altitude 22:10:46 53° 269° (W) 1,222 4.5 -31.2°
Enters shadow 22:11:22 51° 249° (WSW) 1,246 4.5 -31.2°
